GOES 12 [-]

Last updated on Fri Dec 29 2023 00:02:21 GMT+0000 (Coordinated Universal Time)

1 26871U 01031A 23361.45976573 -.00000249 00000+0 00000+0 0 9994 2 26871 10.5283 44.3713 0006354 283.1704 253.7550 0.99138993 81782
UTC large
Height (km)
Speed (km/s)
/
Latitude / Longitude
Inclination (degrees)
Orbital Period (minutes)
Azimuth
Elevation
Range (km)
Doppler Factor

Next 0 passes for location: London (51.5072 / 0.1276)

Sorry there are no passes over London.